Location: Gro�wechsungen
(51.4926°N, 10.6901°E)
Time: 13:34:44
(UTC+00:00)

Cosmos 2082 Rocket - Pass Details

Date: 26 January 2021
Orbit: 832 x 854 km, 71.0° (Epoch: 04 March)

Event Time Altitude Azimuth Distance (km) Brightness Sun altitude
Rises 19:49:18 0° 322° (NW) 3,436 6.0 -35.9°
Reaches altitude 10° 19:52:14 10° 308° (NW) 2,494 5.3 -36.3°
Maximum altitude 19:56:35 23° 258° (WSW) 1,744 4.2 -36.9°
Enters shadow 19:58:05 21° 236° (SW) 1,846 4.2 -37.2°
